Weather History for KTZR - September, 2013

Change the Weather History Date:

Sunday, September 29, 2013

  Actual Average Record
Temperature  
Mean Temperature 63 °F -  
Max Temperature 75 °F 70 °F 82 °F (1998)
Min Temperature 51 °F 49 °F 41 °F (2012)
Degree Days  
Heating Degree Days 2    
Growing Degree Days 13 (Base 50)    
Moisture  
Dew Point 56 °F    
Average Humidity 90    
Maximum Humidity 100    
Minimum Humidity 53    
Precipitation  
Precipitation 0.00 in - - ()
Sea Level Pressure  
Sea Level Pressure 30.06 in    
Wind  
Wind Speed 3 mph (SSW)    
Max Wind Speed 13 mph    
Max Gust Speed -    
Visibility 9 miles    
Events      
Averages and records for this station are not official NWS values.
T = Trace of Precipitation, MM = Missing Value Source: NWS Daily Summary

Daily Weather History Graph

Daily Weather History Graph

Search for Another Location

Airport or City:

Trip Planner

Search our weather history database for the weather conditions in past years. The results will help you decide how hot, cold, wet, or windy it might be!

Date:

Astronomy

Sep. 29, 2013 Rise Set
Actual Time 7:27 AM EDT 7:17 PM EDT
Civil Twilight 7:00 AM EDT 7:44 PM EDT
Nautical Twilight 6:28 AM EDT 8:16 PM EDT
Astronomical Twilight 5:56 AM EDT 8:47 PM EDT
Moon 2:07 AM EDT (9/29) 4:12 PM EDT (9/29)
Length of Visible Light 12h 44m
Length of Day
11h 50m
Waning Crescent, 27% of the Moon is Illuminated
Sep 29
Waning Crescent
Oct 4
New
Oct 11
First Quarter
Oct 18
Full
Oct 26
Last Quarter

Hourly Weather History & Observations

Time (EDT) Temp. Dew Point Humidity Pressure Visibility Wind Dir Wind Speed Gust Speed Precip Events Conditions
12:15 AM 55.4 °F 52.7 °F 91% 30.09 in 10.0 mi SSE 3.5 mph - N/A   Clear
12:35 AM 54.7 °F 52.3 °F 92% 30.09 in 10.0 mi SSE 3.5 mph - N/A   Clear
12:55 AM 55.2 °F 52.7 °F 91% 30.09 in 10.0 mi SSE 3.5 mph - N/A   Clear
1:15 AM 53.8 °F 52.2 °F 94% 30.09 in 10.0 mi Calm Calm - N/A   Clear
1:35 AM 52.7 °F 51.6 °F 96% 30.09 in 10.0 mi Calm Calm - N/A   Clear
1:55 AM 53.1 °F 52.5 °F 98% 30.09 in 10.0 mi Calm Calm - N/A   Clear
2:15 AM 51.8 °F 51.1 °F 97% 30.09 in 7.0 mi Calm Calm - N/A   Clear
2:35 AM 52.2 °F 51.6 °F 98% 30.09 in 10.0 mi Calm Calm - N/A   Clear
2:55 AM 52.5 °F 52.2 °F 99% 30.09 in 7.0 mi Calm Calm - N/A   Clear
3:15 AM 51.1 °F 50.7 °F 99% 30.08 in 10.0 mi Calm Calm - N/A   Scattered Clouds
3:35 AM 52.0 °F 51.8 °F 99% 30.08 in 7.0 mi Calm Calm - N/A   Scattered Clouds
3:55 AM 51.6 °F 50.9 °F 97% 30.07 in 7.0 mi Calm Calm - N/A   Scattered Clouds
4:15 AM 52.9 °F 52.7 °F 99% 30.07 in 7.0 mi Calm Calm - N/A   Scattered Clouds
4:35 AM 53.8 °F 53.4 °F 99% 30.07 in 10.0 mi South 3.5 mph - N/A   Scattered Clouds
4:55 AM 53.8 °F 53.6 °F 99% 30.07 in 7.0 mi South 3.5 mph - N/A   Scattered Clouds
5:15 AM 53.2 °F 53.1 °F 99% 30.07 in 7.0 mi Calm Calm - N/A   Mostly Cloudy
5:35 AM 53.8 °F 53.6 °F 99% 30.07 in 7.0 mi Calm Calm - N/A   Mostly Cloudy
5:55 AM 54.0 °F 53.8 °F 99% 30.07 in 7.0 mi Calm Calm - N/A   Mostly Cloudy
6:15 AM 54.1 °F 54.0 °F 99% 30.07 in 7.0 mi Calm Calm - N/A   Mostly Cloudy
6:35 AM 54.1 °F 53.8 °F 99% 30.07 in 5.0 mi Calm Calm - N/A   Scattered Clouds
6:55 AM 53.1 °F 53.1 °F 100% 30.07 in 5.0 mi SE 3.5 mph - N/A   Clear
7:15 AM 52.7 °F 52.7 °F 100% 30.08 in 4.0 mi SSE 4.6 mph - N/A   Scattered Clouds
7:21 AM 53.6 °F 53.6 °F 100% 30.08 in 7.0 mi Calm Calm - N/A   Scattered Clouds
7:50 AM 53.6 °F 53.6 °F 100% 30.09 in 5.0 mi Calm Calm - N/A   Mostly Cloudy
8:50 AM 57.2 °F 55.4 °F 94% 30.09 in 5.0 mi SSE 3.5 mph - N/A   Mostly Cloudy
9:50 AM 62.6 °F 59.0 °F 88% 30.08 in 7.0 mi South 8.1 mph - N/A   Mostly Cloudy
10:50 AM 66.2 °F 60.8 °F 83% 30.07 in 10.0 mi SSE 5.8 mph - N/A   Clear
11:50 AM 69.8 °F 60.8 °F 73% 30.07 in 10.0 mi SSW 5.8 mph - N/A   Mostly Cloudy
12:50 PM 71.6 °F 60.8 °F 69% 30.06 in 10.0 mi South 6.9 mph - N/A   Mostly Cloudy
1:50 PM 75.2 °F 57.2 °F 53% 30.04 in 10.0 mi SW 11.5 mph - N/A   Mostly Cloudy
2:50 PM 71.6 °F 57.2 °F 60% 30.01 in 10.0 mi SW 9.2 mph - N/A   Mostly Cloudy
3:50 PM 69.8 °F 57.2 °F 64% 30.02 in 10.0 mi West 12.7 mph - N/A   Overcast
4:58 PM 68.0 °F 60.8 °F 78% 30.01 in 10.0 mi West 5.8 mph - N/A   Overcast
5:50 PM 66.2 °F 60.8 °F 83% 30.02 in 10.0 mi Calm Calm - N/A   Overcast
7:35 PM 65.8 °F 59.0 °F 79% 30.02 in 10.0 mi SW 4.6 mph - N/A   Overcast
7:55 PM 65.3 °F 59.0 °F 80% 30.03 in 10.0 mi SW 3.5 mph - N/A   Overcast
8:15 PM 64.6 °F 59.0 °F 82% 30.03 in 10.0 mi WSW 5.8 mph - N/A   Overcast
8:35 PM 64.4 °F 59.4 °F 84% 30.03 in 10.0 mi WSW 5.8 mph - N/A   Overcast
8:55 PM 63.7 °F 59.4 °F 86% 30.04 in 10.0 mi SW 3.5 mph - N/A   Overcast
9:15 PM 63.5 °F 59.5 °F 87% 30.04 in 10.0 mi SW 4.6 mph - N/A   Overcast
9:35 PM 63.0 °F 59.7 °F 89% 30.03 in 10.0 mi SSW 3.5 mph - N/A   Overcast
9:55 PM 63.0 °F 59.7 °F 89% 30.04 in 10.0 mi SSW 4.6 mph - N/A   Overcast
10:15 PM 62.8 °F 59.9 °F 90% 30.03 in 10.0 mi SSW 4.6 mph - N/A   Overcast
10:35 PM 62.8 °F 59.4 °F 89% 30.04 in 10.0 mi SW 4.6 mph - N/A   Overcast
10:55 PM 62.6 °F 59.4 °F 89% 30.04 in 10.0 mi SSW 3.5 mph - N/A   Overcast
11:15 PM 62.6 °F 59.4 °F 89% 30.04 in 10.0 mi SSW 3.5 mph - N/A   Overcast
11:35 PM 62.2 °F 59.4 °F 90% 30.04 in 10.0 mi SSW 4.6 mph - N/A   Overcast
11:55 PM 62.6 °F 59.0 °F 88% 30.04 in 10.0 mi SSW 4.6 mph - N/A   Overcast